TimeEST,TemperatureF,Dew PointF,Humidity,Sea Level PressureIn,VisibilityMPH,Wind Direction,Wind SpeedMPH,Gust SpeedMPH,PrecipitationIn,Events,Conditions,WindDirDegrees,DateUTC
12:37 AM,17.6,10.4,73,30.34,9.0,NNW,5.8,-,N/A,Snow,Light Snow,330,2013-02-09 05:37:00
12:53 AM,16.0,10.9,81,30.38,9.0,NNW,4.6,-,N/A,Snow,Light Snow,340,2013-02-09 05:53:00
1:53 AM,15.1,10.0,80,30.39,9.0,NW,8.1,-,N/A,Snow,Light Snow,320,2013-02-09 06:53:00
2:53 AM,16.0,10.0,77,30.39,9.0,NNW,10.4,-,N/A,Snow,Light Snow,330,2013-02-09 07:53:00
3:53 AM,15.1,9.0,77,30.40,9.0,NW,9.2,-,N/A,Snow,Light Snow,320,2013-02-09 08:53:00
4:53 AM,12.9,8.1,81,30.42,9.0,NNW,4.6,-,N/A,Snow,Light Snow,340,2013-02-09 09:53:00
5:53 AM,14.0,8.1,77,30.42,9.0,Calm,Calm,-,N/A,Snow,Light Snow,0,2013-02-09 10:53:00
6:53 AM,12.0,7.0,80,30.44,9.0,Calm,Calm,-,N/A,Snow,Light Snow,0,2013-02-09 11:53:00
7:53 AM,10.0,6.1,84,30.45,9.0,NE,3.5,-,N/A,,Clear,50,2013-02-09 12:53:00
8:53 AM,14.0,10.0,84,30.47,10.0,Calm,Calm,-,N/A,,Clear,0,2013-02-09 13:53:00
9:53 AM,19.9,15.1,81,30.46,10.0,Calm,Calm,-,N/A,,Clear,0,2013-02-09 14:53:00
10:53 AM,24.1,18.0,77,30.46,10.0,Calm,Calm,-,N/A,,Clear,0,2013-02-09 15:53:00
11:53 AM,30.0,17.1,59,30.45,10.0,Calm,Calm,-,0.08,,Clear,0,2013-02-09 16:53:00
12:53 PM,30.0,17.1,59,30.43,10.0,South,4.6,-,0.07,,Clear,170,2013-02-09 17:53:00
1:53 PM,30.9,16.0,54,30.42,10.0,South,5.8,-,0.04,,Clear,180,2013-02-09 18:53:00
2:53 PM,30.9,16.0,54,30.39,6.0,South,8.1,-,0.01,,Haze,180,2013-02-09 19:53:00
3:53 PM,30.9,18.0,59,30.38,10.0,SSE,8.1,-,0.01,,Clear,150,2013-02-09 20:53:00
4:53 PM,30.0,18.0,61,30.37,10.0,SSE,6.9,-,N/A,,Clear,160,2013-02-09 21:53:00
5:53 PM,27.0,18.0,69,30.37,10.0,SE,6.9,-,N/A,,Clear,140,2013-02-09 22:53:00
6:53 PM,25.0,17.1,72,30.38,10.0,SE,6.9,-,N/A,,Clear,140,2013-02-09 23:53:00
7:53 PM,23.0,18.0,81,30.35,10.0,SE,6.9,-,N/A,,Clear,130,2013-02-10 00:53:00
8:53 PM,21.0,16.0,81,30.35,10.0,SE,5.8,-,N/A,,Clear,130,2013-02-10 01:53:00
9:53 PM,19.9,16.0,85,30.33,10.0,SE,6.9,-,N/A,,Clear,140,2013-02-10 02:53:00
10:53 PM,19.9,16.0,85,30.32,8.0,SE,5.8,-,N/A,,Clear,130,2013-02-10 03:53:00
11:53 PM,19.9,15.1,81,30.31,6.0,SE,5.8,-,N/A,,Haze,140,2013-02-10 04:53:00